Regional Weather Roundup
Issued by NWS Grand Forks, ND

Home | Current Version | Previous Version | Graphics & Text | Print | Product List | Glossary On
Versions: 1 2 3 4 5 6 7 8 9 10 11 12 13 14 15 16 17 18 19 20 21 22 23 24 25 26 27 28 29 30 31 32 33 34 35 36 37 38 39 40 41 42 43 44 45 46 47 48 49 50
000
ASUS43 KFGF 181910
RWRFGF
PRAIRIE TO PINES  WEATHER ROUNDUP
NATIONAL WEATHER SERVICE EASTERN NORTH DAKOTA/GRAND FORKS ND
200 PM CDT SAT APR 18 2015

 **SATELLITE DATA USED TO AUGMENT SKY COVER AT AUTOMATED STATIONS**
 *****  WEATHER ACROSS EASTERN NORTH DAKOTA  *****

CITY           SKY/WX    TMP DP  RH WIND       PRES   REMARKS
GRAND FORKS    PTSUNNY   65  24  21 SE6       29.98F
GRAND FRKS AFB PTSUNNY   65  28  24 S12       29.98F
GRAND FRKS NWS   N/A     64 N/A N/A S2          N/A
DEVILS LAKE    MOSUNNY   66  30  26 SE14      29.96F
FARGO          PTSUNNY   69  28  21 SE9       29.97F
WAHPETON ARPT  PTCLDY    72  21  15 S12G18    29.96F
$$

 ***** WEATHER ACROSS CENTRAL AND WESTERN NORTH DAKOTA  *****

CITY           SKY/WX    TMP DP  RH WIND       PRES   REMARKS
BISMARCK       CLOUDY    61  31  32 CALM      29.96F
MINOT          SUNNY     72  21  14 S17G23    29.89F
JAMESTOWN      CLOUDY    64  28  25 SE10      29.95F
MINOT AFB      SUNNY     72  28  19 SW10G20   29.88F
GARRISON         N/A     69  25  19 S8        29.91F
WILLISTON      MOSUNNY   72  38  29 SW14      29.86F
DICKINSON      MOSUNNY   68  35  29 W10       29.90F
HETTINGER      CLOUDY    60  41  49 SE5       29.96F
$$

 *****  OTHER AIRPORT OBSERVATIONS IN OUR AREA  *****

CITY           SKY/WX    TMP DP  RH WIND       PRES   REMARKS
WALHALLA       FAIR      63  30  29 S15G28    29.99F
GRAFTON AIRPOR FAIR      64  27  24 SE13      30.00F
VALLEY CITY AR FAIR      66  28  24 SE10      29.97F
CANDO          FAIR      66  27  22 S17       29.97F
CAVALIER APRT  FAIR      63  30  29 SE12      30.00F
GWINNER        CLEAR     72  32  23 SE13G21   29.96F
SHEYENNE NWR     N/A     72  28  19 SE10      29.95S
ROLLA          FAIR      64  27  24 SW13G25   29.95F
 ***** THE ABOVE OBSERVATIONS ARE NON NWS ARE NOT QUALITY
       CONTROLLED AND MAY MIS-REPORT RAIN FOR SNOW...
$$

  *****  WEATHER ACROSS NORTHERN MINNESOTA  *****

CITY           SKY/WX    TMP DP  RH WIND       PRES   REMARKS
FLAG ISLAND    SUNNY     48  25  40 SE3       30.08F
WARROAD        SUNNY     52  30  43 E7        30.07F
ROSEAU         SUNNY     61  21  21 SE14G22   30.05F
HALLOCK        SUNNY     64  18  16 SE12G18   30.01F
THF RVR FALLS  MOSUNNY   63  27  25 S5        30.02F
BAUDETTE       SUNNY     62  20  19 SE16      30.07F
WASKISH        SUNNY     63  27  25 SE12G17   30.06F
CROOKSTON      MOSUNNY   66  25  20 S7        30.00F
STEPHEN NDAWN    N/A     64  27  24 SE10        N/A
GREENBUSH NDAW   N/A     63  27  25 SE10        N/A
$$
  *****  WEATHER ACROSS CENTRAL AND WEST MINNESOTA  *****

CITY           SKY/WX    TMP DP  RH WIND       PRES   REMARKS
FOSSTON        SUNNY     66  27  22 SE5       30.02F
BEMIDJI        SUNNY     60  29  31 SE10      30.05F
PARK RAPIDS    SUNNY     64  28  25 SE10G17   30.03F
ELBOW LAKE     FAIR      69  32  25 SE10G18   29.97F
WADENA         SUNNY     64  34  32 E12G18    30.01F
DETROIT LAKES  SUNNY     64  32  29 S13       30.01F
MOORHEAD       PTSUNNY   70  28  21 S8        29.98F
FERGUS FALLS   MOSUNNY   70  21  16 SE14G20   29.98F
MORRIS MN      SUNNY     75  27  16 SE14G21   29.95F
STAPLES        SUNNY     63  28  27 SE8       30.03F
$$
  *****  WEATHER ELSEWHERE ACROSS MINNESOTA  *****

CITY           SKY/WX    TMP DP  RH WIND       PRES   REMARKS
DULUTH         MOSUNNY   49  30  48 E17G25    30.15F
INTRNTL FALLS  SUNNY     61  17  18 SE17G29   30.11F
ELY            SUNNY     55  16  21 SE17      30.15F
CLOQUET        MOSUNNY   48  30  49 E17       30.14F
WHEATON        SUNNY     72  28  20 E13G21    29.96F
BRAINERD       SUNNY     61  30  31 SE9G16    30.06F
HIBBING        SUNNY     59  18  20 SE17G24   30.12F
ALEXANDRIA     SUNNY     68  30  24 E16       30.00F
SAINT CLOUD    SUNNY     67  30  25 E14G20    30.01F
MINNEAPOLIS    PTSUNNY   69  33  26 E15       30.00F
$$

  *****  WEATHER ACROSS SOUTH DAKOTA  *****

CITY           SKY/WX    TMP DP  RH WIND       PRES   REMARKS
SIOUX FALLS    LGT RAIN  59  50  72 S7        29.93S
BROOKINGS      CLOUDY    68  36  30 SE18      29.93F
WATERTOWN      PTSUNNY   71  28  20 E12       29.93F
HURON          CLOUDY    64  39  39 S17G24    29.90F
SISSETON         N/A     73  27  18 SE13G23   29.93F
ABERDEEN       CLOUDY    74  24  15 S14G20    29.91F
MITCHELL       LGT RAIN  53  51  93 NE9       29.90F FOG
PIERRE         LGT RAIN  54  40  59 NE9       29.90F
MOBRIDGE       CLOUDY    63  25  23 S6        29.92F
RAPID CITY     CLOUDY    47  43  86 N13       29.94F
$$

  *****  SOME WEATHER IN NEARBY STATES *****

CITY           SKY/WX    TMP DP  RH WIND       PRES   REMARKS
GLASGOW MT     MOSUNNY   58  29  33 N28G38    30.03S
GREAT FALLS MT LGT RAIN  36  34  92 N10       30.29F
CHEYENNE WY    CLOUDY    39  34  82 N7        29.92F
SCOTTSBLUFF NE PTSUNNY   55  32  41 VRB3      29.90F
OMAHA NE       RAIN      62  59  90 SE13      29.90S FOG
DES MOINES IA  CLOUDY    75  56  51 SE25G36   29.87F
DAVENPORT IA   CLOUDY    78  52  40 S13       29.97F
CHICAGO IL     PTSUNNY   57  38  48 NE15      30.07F
EAU CLAIRE WI  MOSUNNY   68  32  26 E13       30.05F
LA CROSSE WI   SUNNY     74  34  23 SE17      30.02F
$$

  *****  SOME NATIONAL WEATHER *****

CITY           SKY/WX    TMP DP  RH WIND       PRES   REMARKS
LA GUARDIA NY  PTSUNNY   77  38  24 W8G17     29.88F
RALEIGH NC     PTSUNNY   79  59  50 E9        29.96F
ATLANTA GA     CLOUDY    72  64  76 SE8       29.95F
NEW ORLEANS LA CLOUDY    78  69  73 SE12G22   29.85F
OKLAHOMA CITY  PTSUNNY   74  58  57 SE14      29.86F
ALBUQUERQUE NM MOSUNNY   55  27  34 NW8G17    29.99F
SALT LAKE CITY MOSUNNY   61  38  42 NW12      30.03F
LOS ANGELES CA SUNNY     69  51  52 W10       30.01F
BOISE ID       MOSUNNY   68  34  28 NW21G28   30.10F
SEATTLE WA     SUNNY     61  42  49 N8        30.35F
$$

*** WEATHER ACROSS MANITOBA...SASKATCHEWAN AND ONTARIO ***
                ***ONTARIO***

CITY           SKY/WX    TMP DP  RH WIND       PRES   REMARKS
GERALDTON      MOSUNNY   45  28  53 E6        30.27S
THUNDER BAY    MOSUNNY   52  23  32 SE12G21   30.27F
SIOUX LOOKOUT  MOSUNNY   55  21  26 S10G17    30.17F
TORONTO        MOSUNNY   63  28  27 N20       30.07R
BIG TROUT LK   SUNNY     45   9  23 VRB2      30.23F
PICKLE LAKE    MOSUNNY   52  23  32 SE3       30.20F
DRYDEN         SUNNY     57  18  21 S18G26    30.14F
KENORA         MOSUNNY   55  18  22 S14G21    30.11F
$$
                *** MANITOBA***

CITY           SKY/WX    TMP DP  RH WIND       PRES   REMARKS
BRANDON        MOSUNNY   66  36  32 S20G26    29.90F
DAUPHIN        CLOUDY    63  34  34 W16       29.87S
ISLAND LAKE    CLOUDY    48  32  53 SE10      30.08F
PILOT MOUND      N/A     66  25  20 S15G21      N/A
THE PAS        CLOUDY    45  36  70 S13       29.83F
THOMPSON       LGT RAIN  39  36  87 S3        30.05R
WINNIPEG       MOSUNNY   61  27  27 SE17G24   30.02F
LYNN LAKE      LGT RAIN  37  37 100 E7        29.96S
CHURCHILL      SNOWSHWR  23  16  74 SE7       30.29S WCI  15
GILLAM         CLOUDY    36  30  80 E9        30.14F
$$
                ***SASKATCHEWAN***

CITY           SKY/WX    TMP DP  RH WIND       PRES   REMARKS
ESTEVAN        PTSUNNY   63  34  34 NW26G33   29.90R
KINDERSLEY       N/A     46  28  49 NW18G33   30.11S
LLOYDMINSTER   CLOUDY    45  32  61 NW26G38   30.05F
PRINCE ALBERT  CLOUDY    48  36  61 NW17G24   29.91R
REGINA         PTSUNNY   57  32  38 NW26G33   29.97R
YORKTON        SUNNY     61  36  39 W22G28    29.86F
N. BATTLEFORD  CLOUDY    45  32  61 NW23G37   30.04R
LA RONGE       CLOUDY    41  39  93 N2        29.87S
SASKATOON      PTSUNNY   48  32  53 NW22G31   30.00S
SWIFT CURRENT  MOSUNNY   48  27  43 NW25G35   30.06F
$$
NOTE: THESE ARE AUTOMATED STATIONS WITH LIMITED QUALITY CONTROL
      "FAIR" INDICATES FEW OR NO CLOUDS BELOW 12,000 FEET WITH NO
      SIGNIFICANT WEATHER AND/OR OBSTRUCTIONS TO VISIBILITY.
      SKY/WX - SKY CONDITION AND SIGNIFICANT WEATHER.
      TMP - AIR TEMPERATURE.    DP   - DEWPOINT TEMPERATURE.
      RH  - RELATIVE HUMIDITY.  PRES - PRESSURE.
      HX  - HEAT INDEX.         WCI  - WIND CHILL INDEX.
$



USA.gov is the U.S. government's official web portal to all federal, state and local government web resources and services.